Weather History for Alexandria, LA

Change the Weather History Date:

Saturday, October 1, 2011

  Actual Average Record
Temperature  
Mean Temperature 64 °F 72 °F  
Max Temperature 82 °F 83 °F 97 °F (1900)
Min Temperature 45 °F 60 °F 41 °F (1984)
Degree Days  
Heating Degree Days 1 1  
Month to date heating degree days 1 1  
Since 1 July heating degree days 1 4  
Cooling Degree Days 0 7  
Month to date cooling degree days 0 7  
Year to date cooling degree days 2877 2357  
Growing Degree Days 14 (Base 50)    
Moisture  
Dew Point 41 °F    
Average Humidity 53    
Maximum Humidity 86    
Minimum Humidity 19    
Precipitation  
Precipitation 0.00 in 0.24 in 2.90 in (1955)
Month to date precipitation 0.00 0.24  
Year to date precipitation 25.90 39.37  
Sea Level Pressure  
Sea Level Pressure 30.13 in    
Wind  
Wind Speed 5 mph (NE)    
Max Wind Speed 13 mph    
Max Gust Speed 18 mph    
Visibility 10 miles    
Events      
T = Trace of Precipitation, MM = Missing Value Source: NWS Daily Summary

Daily Weather History Graph

Daily Weather History Graph

Search for Another Location

Airport:

Trip Planner

Search our weather history database for the weather conditions in past years. The results will help you decide how hot, cold, wet, or windy it might be!

Date:

Astronomy

Oct. 01, 2011 Rise Set
Actual Time 7:03 AM CDT 6:55 PM CDT
Civil Twilight 6:39 AM CDT 7:19 PM CDT
Nautical Twilight 6:11 AM CDT 7:47 PM CDT
Astronomical Twilight 5:43 AM CDT 8:16 PM CDT
Moon 11:48 AM CDT (10/1) 10:15 PM CDT (10/1)
Length of Visible Light 12h 40m
Length of Day
11h 51m
Waxing Crescent, 24% of the Moon is Illuminated
Oct 1
Waxing Crescent
Oct 3
First Quarter
Oct 11
Full
Oct 19
Last Quarter
Oct 26
New

Hourly Weather History & Observations

Time (CDT) Temp. Dew Point Humidity Pressure Visibility Wind Dir Wind Speed Gust Speed Precip Events Conditions
12:53 AM 54.0 °F 43.0 °F 66% 30.09 in 10.0 mi Calm Calm - N/A   Clear
1:53 AM 50.0 °F 43.0 °F 77% 30.09 in 10.0 mi Calm Calm - N/A   Clear
2:53 AM 50.0 °F 43.0 °F 77% 30.09 in 10.0 mi Calm Calm - N/A   Clear
3:53 AM 48.9 °F 44.1 °F 83% 30.09 in 10.0 mi Calm Calm - N/A   Clear
4:53 AM 48.2 °F 42.8 °F 82% 30.09 in 10.0 mi Calm Calm - N/A   Clear
5:53 AM 48.0 °F 44.1 °F 86% 30.12 in 10.0 mi Calm Calm - N/A   Clear
6:53 AM 46.9 °F 43.0 °F 86% 30.13 in 9.0 mi Calm Calm - N/A   Clear
7:53 AM 52.0 °F 44.1 °F 74% 30.15 in 10.0 mi NNE 6.9 mph - N/A   Clear
8:53 AM 60.8 °F 44.6 °F 55% 30.16 in 10.0 mi NNE 5.8 mph - N/A   Clear
9:53 AM 69.1 °F 42.1 °F 38% 30.20 in 10.0 mi ENE 6.9 mph - N/A   Clear
10:53 AM 73.0 °F 39.0 °F 29% 30.20 in 10.0 mi NE 8.1 mph - N/A   Clear
11:53 AM 75.9 °F 37.0 °F 24% 30.19 in 10.0 mi NNE 4.6 mph - N/A   Clear
12:53 PM 77.0 °F 36.0 °F 23% 30.17 in 10.0 mi ENE 11.5 mph 18.4 mph N/A   Clear
1:53 PM 79.0 °F 37.9 °F 23% 30.14 in 10.0 mi North 10.4 mph 17.3 mph N/A   Clear
2:53 PM 79.0 °F 37.0 °F 22% 30.12 in 10.0 mi Variable 5.8 mph - N/A   Clear
3:53 PM 81.0 °F 37.0 °F 21% 30.10 in 10.0 mi NE 9.2 mph - N/A   Clear
4:53 PM 80.1 °F 36.0 °F 20% 30.09 in 10.0 mi NE 3.5 mph - N/A   Clear
5:53 PM 79.0 °F 34.0 °F 20% 30.10 in 10.0 mi NE 8.1 mph - N/A   Clear
6:53 PM 71.6 °F 39.2 °F 31% 30.10 in 10.0 mi ENE 4.6 mph - N/A   Clear
7:53 PM 61.0 °F 46.0 °F 58% 30.12 in 10.0 mi NE 4.6 mph - N/A   Clear
8:53 PM 66.9 °F 39.9 °F 37% 30.14 in 10.0 mi NE 6.9 mph - N/A   Clear
9:53 PM 64.0 °F 41.0 °F 43% 30.15 in 10.0 mi NE 4.6 mph - N/A   Clear
10:53 PM 63.0 °F 42.1 °F 46% 30.16 in 10.0 mi NE 4.6 mph - N/A   Clear
11:53 PM 62.1 °F 42.1 °F 48% 30.17 in 10.0 mi NE 6.9 mph - N/A   Clear